Regional Weather Roundup
Issued by NWS Cleveland, OH

Home | Current Version | Previous Version | Text Only | Print | Product List | Glossary Off
Versions: 1 2 3 4 5 6 7 8 9 10 11 12 13 14 15 16 17 18 19 20 21 22 23 24 25 26 27 28 29 30 31 32 33 34 35 36 37 38 39 40 41 42 43 44 45 46 47 48 49 50

000
ASUS41 KCLE 241512
RWRCLE
OHIO REGIONAL WEATHER ROUNDUP
NATIONAL WEATHER SERVICE WILMINGTON, OH
1000 AM EST FRI FEB 24 2017

NOTE: "FAIR" INDICATES FEW OR NO CLOUDS BELOW 12,000 FEET WITH NO
SIGNIFICANT WEATHER AND/OR OBSTRUCTIONS TO VISIBILITY.

OHZ001>008-015>018-024>027-034-035-043-044-241600-
   NORTHWEST OHIO

CITY           SKY/WX    TMP DP  RH WIND       PRES   REMARKS
DEFIANCE       CLOUDY    61  55  81 S15G21    29.58F
FINDLAY        FAIR      67  54  63 S25G32    29.62S
TOLEDO EXPRESS PTSUNNY   55  55 100 S8        29.60S
TOLEDO EXEC    FAIR      63  56  78 S16G24    29.62R
LIMA           FAIR      65  56  72 S22G36    29.62F
$$

OHZ009>014-019>023-028>033-038-089-241600-
   NORTHEAST OHIO

CITY           SKY/WX    TMP DP  RH WIND       PRES   REMARKS
CLE-HOPKINS    PTSUNNY   67  53  61 S21G31    29.68F
CLE-LAKEFRONT  FAIR      68  54  60 S23G33    29.66S
CUY CO. ARPT   MOSUNNY   68  55  64 S16G23    29.68F
LORAIN-ELYRIA  FAIR      65  53  65 SW24G31   29.66F
ASHTABULA      FAIR      64  55  72 S15G22    29.72F
AKRON-CANTON   PTSUNNY   65  52  62 S24G33    29.74F
WOOSTER        FAIR      64  53  67 SW17G25   29.73S
MANSFIELD      FAIR      64  54  69 S23G30    29.70F
YOUNGSTOWN     PTSUNNY   65  53  65 S17G24    29.74F
$$

OHZ042-051>053-060>062-070>072-077>081-241600-
  SOUTHWEST OHIO

CITY           SKY/WX    TMP DP  RH WIND       PRES   REMARKS
CINC-COVINGTON PTSUNNY   67  55  65 S16G26    29.70S
CINC-LUNKEN    FAIR      65  55  70 S14       29.72S
HAMILTON       FAIR      69  56  62 S10G21    29.70F
DAYTON         FAIR      65  54  67 S23G31    29.68F
WRIGHT-PAT AFB MOSUNNY   66  57  71 S22       29.69S
DAYTON GENERAL PTSUNNY   65  54  67 S18G25    29.69F
WILMINGTON     FAIR      64  53  67 S22G29    29.72S
$$

OHZ036-037-039>041-045>050-054>059-063>069-073>076-082>088-241600-
  CENTRAL AND SOUTHEAST OHIO

CITY           SKY/WX    TMP DP  RH WIND       PRES   REMARKS
COLUMBUS       PTSUNNY   67  53  61 S16G30    29.73S
OSU AIRPORT    FAIR      65  55  70 S16G22    29.72S
BOLTON FIELD   MOSUNNY   63  55  77 S13       29.73S
RICKENBACK AFB FAIR      65  53  64 S20G29    29.73S
NEWARK         PTSUNNY   66  52  60 S12       29.74S
MARION         FAIR      64  54  69 S25G32    29.69F
LANCASTER      FAIR      69  52  54 S15G26    29.75F
ZANESVILLE     FAIR      67  53  61 S15G23    29.76F
NEW PHILLY     FAIR      67  53  61 SW13G20   29.77F
$$




USA.gov is the U.S. government's official web portal to all federal, state and local government web resources and services.